Regional Weather Roundup
Issued by NWS Charleston, WV

Home | Current Version | Previous Version | Graphics & Text | Print | Product List | Glossary On
Versions: 1 2 3 4 5 6 7 8 9 10 11 12 13 14 15 16 17 18 19 20 21 22 23 24 25 26 27
000
ASUS41 KRLX 162210
RWRRLX
West Virginia Regional Weather Roundup
National Weather Service Charleston WV
500 PM EST TUE JAN 16 2018

Note: "fair" indicates few or no clouds below 12,000 feet with no
significant weather and/or obstructions to visibility.

WVZ003-162300-
Northern Panhandle of West Virginia

CITY           SKY/WX    TMP DP  RH WIND       PRES   REMARKS
WHEELING       LGT SNOW  15  10  80 W8        30.37R WCI   4
$$

WVZ009-162300-
Northwest West Virginia

CITY           SKY/WX    TMP DP  RH WIND       PRES   REMARKS
PARKERSBURG    LGT SNOW  15   9  76 W9        30.48R VSB 1   WCI   3
$$

WVZ006-162300-
Western West Virginia

CITY           SKY/WX    TMP DP  RH WIND       PRES   REMARKS
HUNTINGTON     LGT SNOW  16  11  80 NW5       30.47R VSB 3/4 WCI   9
$$

WVZ015-162300-
West Central West Virginia

CITY           SKY/WX    TMP DP  RH WIND       PRES   REMARKS
CHARLESTON     LGT SNOW  19  14  81 NW5       30.43R VSB 1
$$

WVZ022-031-162300-
North Central West Virginia

CITY           SKY/WX    TMP DP  RH WIND       PRES   REMARKS
CLARKSBURG     LGT SNOW  24  19  81 W8        30.37R VSB 3/4
MORGANTOWN     LGT SNOW  24  20  84 VRB3      30.35R VSB 3/4
$$

WVZ025-035-042-045-162300-
Southern West Virginia

CITY           SKY/WX    TMP DP  RH WIND       PRES   REMARKS
BECKLEY        LGT SNOW  23  20  88 N10       30.27R FOG
LOGAN          LGT SNOW  19  18  93 CALM      30.37R
BLUEFIELD      CLOUDY    29  24  82 NW7       30.24R
LEWISBURG      LGT SNOW  32  31  96 CALM      30.25S VSB 3/4
$$

WVZ047-162300-
Northern Mountains of West Virginia

CITY           SKY/WX    TMP DP  RH WIND       PRES   REMARKS
ELKINS         LGT SNOW  27  22  81 NW9       30.28R
$$

WVZ052-162300-
Eastern Panhandle of West Virginia

CITY           SKY/WX    TMP DP  RH WIND       PRES   REMARKS
MARTINSBURG    CLOUDY    31  26  82 NW6       30.34R
PETERSBURG     LGT SNOW  27  25  91 CALM      30.32S
$$




USA.gov is the U.S. government's official web portal to all federal, state and local government web resources and services.